Location: Unspecified
(0.0000°N, 0.0000°E)
Time: 00:56:05
(UTC+00:00)

A-11 Canister half - Pass Details

Date: 16 February 2023
Orbit: 1526 x 1682 km, 47.3° (Epoch: 29 March)

Event Time Altitude Azimuth Distance (km) Brightness Sun altitude
Rises 08:38:03 0° 356° (N) 4,701 11.4 35.0°
Reaches altitude 10° 08:44:21 10° 27° (NNE) 3,756 11.3 36.5°
Maximum altitude 08:47:12 12° 45° (NE) 3,652 11.5 37.2°
Drops below altitude 10° 08:50:04 10° 63° (ENE) 3,796 11.8 37.9°
Sets 08:56:27 0° 93° (E) 4,828 12.5 39.5°
